INTELSAT 17 (IS-17)

Last updated on Sun Jun 21 2026 00:03:04 GMT+0000 (Coordinated Universal Time)

1 37238U 10065B 26171.40511204 -.00000006 00000+0 00000+0 0 9994 2 37238 0.0074 105.9067 0002686 3.4204 11.1218 1.00272377 53280
UTC large
Height (km)
Speed (km/s)
/
Latitude / Longitude
Inclination (degrees)
Orbital Period (minutes)
Azimuth
Elevation
Range (km)
Doppler Factor

Next 0 passes for location: London (51.5072 / 0.1276)

No passes found over London.
INTELSAT 17 (IS-17)